Simultaneous Nadir Overpasses (SNOs) Predictions

Prediction of SNOs between LANDSAT-8 and METOP-A Satellite Orbit:

Table of predicted SNOs for the next 14.0 days since TLE Epoch: 8/21/2021
Index Date (LANDSAT-8) Time (LANDSAT-8) Lat,Lon (LANDSAT-8) SZA (LANDSAT-8 ) Date (METOP-A) Time (METOP-A) Lat,Lon (METOP-A) SZA (METOP-A ) Distance(km) Time Diff (sec)
1 08/23/2021 11:38:38 81.33, 48.96 72.43 08/23/2021 11:38:00 81.35, 48.93 72.42 1.62 38
2 08/23/2021 12:28:05 -81.33,-143.45 107.57 08/23/2021 12:28:40 -81.34,-143.50 107.55 1.18 35
3 08/26/2021 07:12:53 81.35, 115.70 73.46 08/26/2021 07:12:20 81.34, 115.51 73.42 3.38 33
4 08/26/2021 08:02:21 -81.33, -77.07 106.59 08/26/2021 08:03:00 -81.33, -76.88 106.56 3.05 39
5 08/29/2021 02:47:09 81.34,-177.97 74.45 08/29/2021 02:46:40 81.33,-177.93 74.43 1.52 29
6 08/29/2021 03:36:37 -81.32, -10.71 105.60 08/29/2021 03:37:21 -81.33, -10.67 105.57 1.33 44
7 08/31/2021 22:21:24 81.33,-111.68 75.46 08/31/2021 22:21:00 81.34,-111.78 75.44 1.60 24
8 08/31/2021 23:10:51 -81.34, 55.98 104.53 08/31/2021 23:11:40 -81.32, 55.90 104.53 1.87 49
9 09/03/2021 17:55:40 81.32, -45.42 76.48 09/03/2021 17:55:20 81.33, -45.26 76.49 2.89 20



Historial Predications of SNOs between LANDSAT-8 and METOP-A
